Theta_e
290 290 292 292 294 296 296 296 296 296 295 296 295 296 296 295 294 294 293 294 295 296 309 312 312 310 310 309 309 308 307 306 306 306 305 305 305 305 303 302 301 302 302 301 302 301 301 300 299 299 295 294 294 295 296 297 298 298 299 299 298 299 298 294 292 289 290 294 293 291 292 292 292 293 293 291 291 294 295 296 296 295 299 298 299
290 290 291 292 293 294 296 296 296 295 295 295 295 295 295 295 295 293 292 293 294 294 301 312 311 310 310 309 309 308 306 306 305 305 304 304 304 306 304 302 301 302 301 300 299 300 299 299 298 298 294 294 293 294 295 295 296 297 297 298 298 298 299 295 292 290 288 291 291 292 291 293 291 293 292 291 290 290 291 291 292 293 296 297 297
289 290 290 291 291 294 295 295 295 295 294 294 294 295 295 295 294 292 292 292 293 294 296 310 311 311 310 309 309 308 306 305 304 304 304 303 303 304 304 302 301 300 300 300 299 298 297 296 297 296 293 293 292 293 294 294 295 296 297 297 297 297 298 297 292 289 288 289 291 290 290 292 292 291 292 292 291 290 289 290 290 290 292 294 296
285 286 289 291 291 292 293 295 295 294 294 294 294 295 295 295 294 293 292 292 292 293 294 304 311 310 309 308 308 307 306 305 304 304 304 303 303 303 304 303 302 301 300 299 299 298 297 297 296 294 293 292 291 292 292 293 293 295 296 296 296 297 297 296 295 291 290 288 289 290 291 291 291 292 292 291 291 290 290 289 289 289 290 292 293
281 283 284 288 291 291 292 295 294 294 293 293 293 294 294 294 294 292 292 291 291 292 293 297 310 309 309 308 307 307 306 305 304 304 304 304 303 303 303 302 302 301 300 300 298 298 298 298 297 295 292 292 291 291 292 293 293 293 293 294 295 296 295 295 293 292 290 288 289 291 292 292 291 291 291 289 289 289 288 288 289 289 289 289 290
278 279 280 281 284 289 291 293 294 294 293 292 293 293 293 294 293 292 292 290 290 291 292 293 306 309 309 308 308 307 306 305 304 304 304 303 303 304 303 303 303 302 301 299 299 298 298 299 297 296 294 292 292 292 293 292 294 294 293 294 295 296 294 294 292 291 290 290 289 288 291 290 289 289 290 290 288 287 287 287 288 288 288 289 290
277 278 279 279 280 282 284 289 292 293 292 291 292 292 293 292 292 291 291 290 289 290 291 292 300 309 309 309 308 307 306 305 305 304 304 303 303 303 303 302 302 301 299 299 298 298 298 298 297 296 295 295 294 293 293 292 292 292 292 292 293 293 293 292 291 290 290 289 289 289 289 289 290 288 289 291 290 289 287 286 286 288 289 289 288
276 276 277 278 279 281 282 286 289 290 289 289 289 290 292 292 292 291 290 289 289 289 290 291 298 307 309 309 308 307 306 305 305 304 303 303 303 303 303 301 301 300 299 299 298 298 298 298 297 296 296 296 296 294 293 292 292 291 292 292 292 292 292 291 290 291 290 289 289 288 289 288 289 290 290 290 288 288 288 288 286 287 288 288 288
275 276 276 276 277 279 281 282 283 284 285 286 287 288 289 292 292 290 289 289 289 289 290 291 294 305 307 307 306 306 305 305 305 304 302 301 300 298 298 298 299 298 299 297 297 296 297 298 297 296 296 294 293 293 292 293 292 291 291 291 290 291 291 291 291 291 290 289 289 289 289 288 288 287 287 287 287 287 288 289 288 288 288 288 288
274 275 275 276 277 278 279 281 283 284 285 286 287 287 288 290 289 288 288 288 289 289 290 291 293 303 306 306 305 305 305 305 300 299 300 301 298 297 298 298 297 297 296 296 296 295 296 297 297 292 291 291 291 292 292 292 292 293 292 291 290 291 291 290 291 291 290 289 289 288 288 288 288 287 287 288 290 291 289 289 287 288 288 287 287
274 275 275 276 277 278 278 279 281 281 283 283 284 285 286 287 288 288 288 288 288 288 289 290 292 301 305 305 304 305 305 304 298 300 300 299 300 299 296 295 294 295 295 294 293 293 295 296 297 293 291 290 292 291 292 292 292 292 292 291 292 292 291 290 290 290 290 289 289 289 288 287 288 288 288 288 289 289 289 289 288 287 286 285 284
274 274 275 276 277 277 277 278 279 281 283 284 285 285 286 287 287 287 287 287 288 288 289 290 292 299 304 305 304 304 305 300 299 299 299 298 298 298 296 295 294 294 294 293 294 293 293 294 295 294 293 293 294 293 292 291 291 292 291 291 292 292 293 292 291 290 290 290 289 288 288 288 288 288 288 288 288 289 288 289 288 287 287 286 286
274 274 275 275 276 277 277 278 278 279 281 285 286 287 287 287 287 287 287 287 288 287 288 290 292 298 302 302 303 303 303 300 299 298 299 298 298 298 297 295 294 294 293 293 293 293 293 292 292 293 293 289 291 292 292 291 290 291 291 290 291 292 293 294 293 292 292 291 289 289 289 289 288 288 290 289 289 287 288 288 288 288 288 287 288
273 273 274 274 275 276 277 277 278 279 281 282 283 284 286 286 287 288 288 288 288 287 288 289 291 296 301 302 302 302 302 299 298 298 298 298 297 297 296 294 294 294 294 293 292 292 292 292 291 291 292 291 291 291 292 290 289 289 289 289 290 290 292 292 292 291 292 292 290 289 291 292 289 290 290 289 288 287 287 287 287 287 287 287 287
273 273 273 274 275 276 277 278 278 280 281 283 284 284 285 286 287 288 288 288 288 287 288 289 290 293 298 301 301 300 301 298 298 298 298 298 298 298 295 294 294 293 294 292 292 292 292 293 293 292 292 290 291 291 290 289 288 288 288 288 289 290 293 294 294 294 293 292 291 291 292 293 293 292 290 289 289 289 289 288 288 288 287 285 285
272 273 273 274 274 276 276 277 278 278 280 283 284 284 285 286 287 288 288 288 289 289 289 290 291 292 295 299 299 299 300 298 297 297 297 298 298 296 295 294 293 293 293 292 292 293 292 292 292 291 292 291 290 291 291 289 288 288 287 287 288 290 291 293 293 294 294 295 294 294 293 293 293 291 290 290 289 289 289 289 287 286 285 286 285
271 273 273 274 275 276 277 277 277 278 279 281 284 285 286 287 288 288 288 288 288 288 289 290 291 292 293 295 297 298 297 297 297 297 297 297 297 297 295 295 294 293 293 293 293 292 292 292 292 291 290 290 290 291 292 290 288 287 287 287 288 288 289 292 292 292 293 293 293 294 294 294 294 293 292 292 290 289 289 287 286 286 286 284 285
271 272 273 274 275 276 277 277 277 277 278 280 281 283 287 288 288 288 288 288 288 288 289 291 292 292 292 293 296 297 296 296 296 296 296 297 296 295 295 295 294 293 293 292 293 293 292 290 291 292 291 290 291 292 292 289 288 287 287 287 287 287 288 289 290 291 291 291 291 291 292 293 293 293 292 292 291 289 288 286 286 287 286 286 284
269 270 271 273 275 276 277 277 277 277 277 280 283 284 285 286 288 289 289 289 288 289 289 291 291 292 292 293 292 295 296 295 296 296 296 296 295 295 296 295 294 293 293 292 293 294 292 290 290 291 292 291 292 292 292 289 288 288 288 287 287 287 288 288 288 288 288 287 288 290 288 289 290 290 289 290 290 289 288 288 288 287 287 287 286
269 270 271 272 274 276 277 277 278 278 278 279 281 282 285 287 288 288 288 289 289 289 290 291 290 292 292 291 292 294 294 294 294 296 296 296 296 296 296 295 293 293 293 293 292 292 292 292 291 292 293 292 292 292 292 291 288 288 288 288 287 287 289 288 288 288 287 287 287 287 287 288 288 288 288 289 289 288 288 288 288 288 287 286 287
268 269 270 271 273 275 277 278 278 278 280 281 283 284 285 286 287 287 287 288 289 289 289 290 291 291 292 292 292 293 293 293 293 296 296 296 296 296 296 295 295 294 294 292 292 292 292 292 291 292 293 293 292 292 292 291 290 289 289 289 289 290 290 289 288 288 287 287 287 287 288 287 287 287 288 288 288 288 288 289 288 288 288 288 287
267 268 268 269 271 274 277 279 279 279 281 282 283 284 285 286 286 287 287 288 287 288 289 290 292 292 292 291 292 293 293 292 294 294 295 296 296 296 296 294 294 294 293 293 292 292 292 293 292 291 292 292 292 292 292 292 291 289 289 291 292 292 290 290 289 288 288 288 288 287 287 287 287 287 287 287 287 287 287 287 288 288 289 289 287
266 267 268 268 270 272 275 278 280 280 280 282 282 283 285 286 286 286 286 287 287 287 288 289 290 291 291 292 292 293 293 292 293 293 295 296 296 296 296 295 295 294 294 293 292 293 294 293 292 291 292 292 292 292 293 292 291 290 291 292 292 292 290 290 288 288 287 287 287 287 287 287 286 286 286 287 287 287 287 287 287 287 287 288 288
266 266 267 268 270 271 274 277 281 282 282 282 283 283 284 284 285 286 286 287 287 288 289 289 290 290 290 291 292 292 293 294 293 293 294 295 296 296 296 296 295 294 294 294 294 295 293 293 292 291 292 292 292 292 293 292 290 292 292 292 292 291 290 289 288 287 286 286 286 286 287 287 287 287 287 287 287 287 286 286 286 286 286 287 286
265 265 266 267 269 271 274 276 280 282 283 283 283 283 284 284 284 286 287 287 287 288 289 289 290 291 291 291 291 292 292 293 293 292 293 294 295 295 296 295 295 295 294 294 293 294 293 293 292 291 291 292 292 292 292 292 292 291 292 291 290 290 289 288 288 287 286 286 286 286 287 287 288 288 288 287 287 286 285 285 285 285 284 284 283
264 265 266 267 269 271 273 275 278 283 284 284 284 285 285 285 286 286 287 287 288 288 288 289 289 290 291 291 291 291 291 291 291 292 291 292 293 294 295 294 294 293 293 294 292 293 293 292 292 291 291 291 292 291 290 291 291 291 290 290 290 290 289 288 288 287 287 287 287 287 287 287 287 287 287 287 286 285 285 283 283 282 283 283 283
264 265 266 268 269 271 273 275 278 282 285 286 286 287 287 287 286 287 287 287 287 288 288 288 289 290 290 290 291 290 290 291 291 291 292 293 293 293 294 293 292 292 292 292 291 292 292 291 291 291 291 291 291 291 290 290 290 290 290 290 290 290 289 289 288 288 288 287 287 287 288 287 287 287 286 286 285 285 285 283 283 282 283 284 283
263 265 267 269 270 272 274 277 279 281 284 286 286 287 287 287 287 287 287 287 287 288 288 289 289 289 290 290 290 290 290 290 290 291 291 292 293 293 293 293 293 293 293 293 292 291 291 290 291 290 290 290 290 291 291 291 290 290 290 290 290 289 288 288 288 289 289 289 288 288 287 287 286 286 286 285 285 285 284 283 282 282 282 283 282
264 267 269 270 272 274 276 278 279 281 283 285 286 287 287 287 287 287 288 289 289 289 289 289 289 290 291 290 290 289 289 289 290 291 290 292 291 292 292 293 293 293 292 292 289 289 289 289 289 289 289 289 289 290 290 290 290 290 289 290 290 289 289 288 287 288 288 288 287 286 286 286 285 285 284 284 284 284 284 283 283 282 282 283 282
266 269 271 273 274 276 278 279 281 282 283 285 286 286 287 288 288 288 288 288 289 290 291 290 290 291 291 291 291 290 289 290 291 291 291 292 292 293 293 293 293 292 292 291 290 289 289 289 289 288 288 289 288 289 289 289 289 289 289 289 289 289 288 288 288 288 288 288 288 286 285 285 285 284 284 284 284 283 283 283 282 282 282 282 282
266 268 270 271 273 275 279 281 282 282 283 285 286 286 287 287 289 289 289 288 289 289 290 291 291 291 291 291 290 291 291 291 291 291 291 292 292 292 292 293 293 292 292 290 290 290 289 289 289 289 289 289 289 289 289 289 289 289 289 289 289 288 287 287 288 288 288 287 287 286 286 285 284 284 284 283 283 282 282 283 283 282 281 282 282
265 267 269 270 272 275 276 280 282 282 283 285 285 286 286 286 287 288 289 289 289 289 290 290 291 291 291 291 289 289 290 291 291 291 291 291 292 292 292 293 293 292 292 292 290 290 290 290 290 289 289 289 289 289 289 289 289 289 289 288 288 288 287 287 288 288 287 287 286 285 285 285 285 284 284 283 283 282 281 281 281 281 281 282 282
264 266 268 269 270 272 273 275 279 283 283 284 285 285 285 285 285 286 287 289 289 289 290 290 291 291 291 291 291 290 290 290 291 290 290 291 291 291 292 292 293 293 292 291 290 290 290 290 290 290 289 289 289 290 289 290 289 289 289 288 287 287 288 288 287 287 287 287 286 285 285 285 285 284 283 283 282 280 281 281 281 281 280 280 280
265 266 267 267 268 269 269 271 274 278 283 285 285 286 286 286 286 286 286 285 286 288 290 290 290 291 291 291 291 290 290 290 290 290 290 290 291 291 292 291 293 293 291 290 290 290 290 290 290 289 289 289 289 289 289 289 289 289 289 288 288 288 287 287 287 287 287 286 286 285 284 285 284 283 282 283 282 281 280 280 281 279 279 279 279
264 266 267 267 266 267 267 269 271 273 277 281 285 286 286 286 286 285 285 285 285 286 286 288 290 290 290 290 290 290 290 290 290 290 290 290 291 291 292 290 290 290 291 291 290 291 290 289 289 289 289 289 289 289 289 289 289 288 288 288 288 288 287 286 286 286 286 286 286 285 284 284 284 283 282 282 280 279 279 280 280 280 279 279 279
263 264 264 265 265 265 266 267 268 270 272 275 278 281 285 286 286 285 285 286 286 286 285 286 287 288 289 289 290 290 290 290 290 290 290 290 291 291 289 289 289 289 289 290 290 290 290 290 290 289 289 289 289 289 289 289 289 289 289 288 288 287 286 286 286 286 286 286 285 284 284 284 284 283 283 281 280 279 279 280 279 280 280 280 279
261 263 263 264 264 264 264 265 266 268 270 271 271 273 275 277 280 282 283 283 284 285 285 285 286 286 287 287 288 289 290 290 290 290 290 290 291 290 290 290 289 289 289 289 289 290 289 289 289 289 289 289 289 289 289 289 289 288 288 288 288 287 286 286 286 285 285 285 285 284 283 283 283 282 282 281 280 279 279 279 279 279 279 279 278
261 262 263 264 263 263 263 263 264 266 266 266 267 268 269 270 271 271 272 272 272 273 273 275 280 284 285 285 287 288 288 289 290 289 290 290 289 289 290 289 289 289 288 289 289 289 289 289 289 289 288 289 288 289 289 288 288 288 288 287 287 287 286 286 285 285 284 284 284 283 283 282 282 282 282 281 280 279 279 279 279 278 278 277 278
260 262 263 264 265 263 262 262 262 263 263 264 264 265 265 265 265 266 266 266 266 266 268 269 270 271 275 284 285 286 287 286 286 286 286 286 287 287 288 288 288 289 289 289 288 288 288 288 288 288 288 288 288 288 288 288 288 287 287 287 286 286 285 285 285 284 284 284 284 283 282 282 282 281 281 281 280 279 278 278 278 278 278 277 277
259 259 261 263 262 262 261 261 261 261 262 262 261 262 262 262 262 262 262 262 262 263 263 264 266 268 270 272 274 274 271 269 270 271 272 273 277 281 286 286 286 287 287 287 287 287 287 287 287 287 287 287 287 287 288 287 287 287 286 286 286 285 285 285 284 284 283 283 282 281 281 281 280 279 279 279 279 278 278 277 277 278 277 277 277
258 259 260 262 261 260 260 260 260 260 260 260 260 260 260 261 261 261 260 260 261 260 260 260 261 265 267 269 271 269 264 264 264 264 265 266 267 267 269 272 277 282 283 283 283 284 284 284 285 285 286 286 286 286 286 286 286 285 285 285 285 284 284 284 283 283 283 282 280 280 280 279 279 278 278 278 279 278 277 277 277 277 277 276 276
257 258 258 258 259 259 259 259 259 259 259 259 259 259 259 259 259 259 259 259 259 259 258 259 259 261 265 269 269 268 262 261 261 261 261 261 262 262 263 265 267 269 271 274 278 280 281 281 280 281 282 283 284 284 284 284 284 284 284 283 283 283 282 282 282 282 282 281 280 280 279 279 278 279 279 279 278 278 277 277 277 277 276 276 275
256 257 257 257 257 257 257 258 258 258 258 258 258 259 259 258 258 258 258 258 257 257 257 257 257 258 260 265 264 264 259 259 259 259 259 259 259 259 260 261 262 263 266 268 270 272 271 270 270 271 271 272 273 276 278 280 282 283 283 283 283 282 282 282 282 282 282 280 280 280 279 279 279 279 279 278 278 277 277 276 276 276 275 275 275
255 256 256 256 256 257 257 257 257 257 257 257 257 257 257 257 257 257 256 256 256 256 256 256 256 257 257 258 258 257 257 257 257 257 257 257 257 258 258 259 260 262 264 265 267 267 267 267 267 268 269 269 270 270 271 272 274 278 281 281 281 280 281 281 281 281 281 280 279 279 278 278 277 278 277 277 277 276 276 276 275 275 274 275 275
254 254 254 254 255 255 255 256 256 256 256 256 256 256 256 256 256 256 256 256 256 256 256 255 256 256 256 256 256 256 256 256 256 256 256 256 256 257 257 258 259 260 262 263 264 265 265 265 266 265 266 267 268 268 268 269 269 270 271 273 273 273 274 276 277 278 279 279 278 278 277 277 277 277 276 276 276 276 275 275 274 273 273 273 273
253 253 253 253 253 254 254 254 255 255 255 254 254 254 254 255 255 255 255 255 255 255 255 255 255 255 255 255 255 255 255 255 255 256 256 256 256 256 256 257 258 260 260 260 261 262 263 264 265 265 265 266 266 266 267 267 268 268 268 268 269 269 271 272 273 274 275 275 276 276 276 275 276 274 273 274 274 274 273 273 273 272 273 272 272
252 253 253 253 252 253 253 253 253 253 253 254 253 253 253 253 254 254 254 254 254 254 254 254 254 254 254 254 254 254 254 254 254 254 255 255 255 255 256 256 256 258 259 259 259 260 261 262 263 263 263 264 265 265 266 266 267 267 267 267 267 268 269 270 271 271 272 273 273 272 272 271 271 271 271 271 271 271 271 270 270 270 271 270 270
252 252 252 252 252 252 251 252 252 252 252 252 253 252 252 252 252 252 253 253 253 253 253 253 253 253 253 253 254 254 254 254 254 254 254 254 255 255 255 255 255 256 257 258 258 258 258 259 260 261 262 262 263 264 264 265 266 266 267 267 267 267 268 268 269 270 271 271 272 272 271 271 270 270 270 270 270 270 269 269 269 269 269 269 269
251 251 251 251 251 251 251 251 251 251 251 251 252 252 252 251 251 251 251 252 252 252 252 252 252 252 253 253 253 253 253 253 253 253 253 254 254 254 255 255 255 255 255 255 255 256 256 257 259 260 260 261 261 263 264 265 265 266 266 266 267 268 267 266 267 268 269 270 270 270 270 270 269 269 269 269 269 269 269 269 269 268 268 268 268
251 251 250 250 250 250 251 251 250 250 250 250 250 251 251 251 250 250 250 251 251 251 251 251 251 251 251 252 252 252 252 252 252 252 252 253 253 254 254 254 254 254 254 254 254 255 255 255 257 258 259 260 260 261 262 264 265 266 266 266 267 267 266 266 266 267 267 268 268 269 269 268 268 268 268 268 268 268 268 268 268 268 268 268 267
251 250 250 250 249 250 250 250 249 249 249 249 249 249 250 250 250 250 250 249 249 250 250 250 250 250 251 251 252 251 251 251 252 252 252 252 252 253 253 253 253 253 254 254 254 254 254 254 255 255 257 258 259 260 261 263 265 266 266 266 266 266 265 265 264 265 265 265 265 266 266 267 267 267 267 267 267 267 267 267 267 267 267 267 267
Wind_Speed
23 21 19 18 17 16 16 13 12 9 8 8 8 8 8 7 10 12 13 14 13 17 18 19 20 20 20 19 19 20 20 18 16 18 18 16 12 16 17 18 18 16 14 13 14 15 16 16 16 15 15 13 7 9 9 8 8 8 10 7 7 11 11 9 9 7 3 4 8 8 9 9 7 7 9 5 4 4 6 5 5 5 7 7 7
21 21 19 17 18 16 15 13 10 9 9 8 7 7 7 7 9 12 14 14 13 14 20 20 20 21 20 20 20 20 20 21 20 17 20 21 19 14 17 20 19 18 17 18 10 14 15 17 17 16 15 16 14 11 10 10 11 11 11 10 10 9 9 9 8 10 9 8 8 7 8 8 8 7 9 9 5 4 5 3 3 4 6 6 7
25 21 20 20 19 16 14 13 10 10 9 8 8 7 7 7 9 10 13 14 14 13 18 18 20 21 22 21 21 20 20 21 19 18 18 20 21 17 15 21 20 19 18 19 16 11 14 15 17 15 12 14 14 10 9 10 9 11 11 10 11 10 11 8 11 7 9 9 9 10 10 9 9 10 9 7 7 5 6 4 4 3 3 5 6
20 23 23 22 21 19 17 13 11 10 9 8 9 8 7 7 7 9 11 12 14 14 15 20 20 22 23 22 22 21 21 20 20 20 21 21 21 21 17 20 20 20 20 19 18 16 15 15 16 16 16 15 14 9 10 9 10 10 9 10 9 9 8 8 9 9 9 11 10 11 10 10 9 9 8 8 10 6 5 5 3 3 4 4 5
23 22 22 25 22 20 19 14 12 11 10 9 8 7 8 7 8 10 10 11 14 14 15 19 20 21 21 21 22 22 22 22 22 21 20 20 21 21 19 20 19 19 20 20 20 17 16 17 14 17 17 17 15 10 11 11 11 12 14 14 13 7 5 8 8 9 11 10 11 9 9 8 8 9 10 11 8 6 4 5 6 5 4 3 3
21 21 21 22 23 23 19 17 14 12 11 9 8 8 7 7 8 10 8 11 13 14 15 17 16 20 22 22 22 22 22 22 22 22 21 19 19 19 18 20 16 20 20 21 17 15 16 16 14 16 18 19 18 14 13 17 15 14 17 14 10 8 8 9 7 7 12 10 14 11 9 10 9 8 10 9 11 9 6 4 4 3 6 6 4
21 21 21 20 19 19 21 20 18 14 11 10 8 6 6 8 9 11 9 9 12 13 15 17 18 18 21 21 22 21 21 21 21 22 21 20 18 19 20 19 16 17 14 14 14 16 15 14 14 16 16 15 15 19 15 18 16 16 15 15 11 13 9 6 8 12 12 12 8 11 12 7 9 10 8 8 7 9 11 10 7 5 5 7 7
21 21 21 20 19 19 18 20 18 16 14 13 12 10 7 7 9 11 9 11 11 13 15 16 18 16 19 21 21 20 20 20 18 21 20 20 20 21 21 20 19 17 18 18 17 14 15 14 15 16 17 16 14 12 18 17 14 14 8 11 12 14 12 9 10 9 9 10 11 11 9 12 7 6 7 8 7 6 7 10 12 11 9 7 6
22 21 21 20 19 18 17 17 18 20 20 21 18 15 11 9 9 11 11 11 10 13 14 14 18 18 17 17 18 18 19 19 18 19 20 21 18 16 16 17 18 18 18 17 16 11 12 13 13 14 20 22 24 20 19 18 16 15 13 13 13 14 11 8 10 10 10 9 8 8 10 9 9 11 11 10 14 16 13 9 8 7 8 7 6
21 21 21 20 20 19 18 18 18 18 18 17 16 14 14 11 12 11 12 11 11 12 14 14 17 18 19 18 17 16 16 16 20 27 24 19 18 16 16 17 16 16 17 18 18 18 12 12 14 22 22 22 22 22 22 22 20 18 17 16 16 15 15 14 9 10 11 12 11 12 11 11 11 13 13 15 9 8 9 9 9 9 8 6 4
21 21 22 21 20 19 18 17 18 19 18 18 17 17 18 15 13 11 11 11 11 12 13 14 16 16 20 20 19 18 17 15 25 26 27 28 23 18 16 13 12 14 15 16 17 17 13 13 12 18 20 19 19 23 22 23 22 20 21 22 20 20 19 18 16 16 13 12 12 10 13 16 15 12 11 11 11 11 12 11 10 10 12 13 11
23 22 22 22 21 21 19 18 18 18 16 15 15 15 14 12 11 11 10 10 11 11 14 14 15 15 16 20 20 20 18 21 27 27 27 28 25 20 17 17 16 14 14 15 15 15 17 16 14 12 13 15 13 15 20 24 24 22 22 22 21 20 20 20 19 16 16 12 10 17 17 15 13 11 9 11 11 8 8 7 9 15 13 11 8
24 22 21 21 22 20 19 18 18 17 17 15 11 9 8 10 11 11 11 10 9 12 13 13 14 13 13 17 20 19 18 24 28 29 28 28 28 22 15 17 17 17 15 15 14 16 15 15 14 13 13 20 15 11 13 18 22 24 24 24 22 23 22 22 21 20 18 19 22 19 19 18 16 15 18 20 16 16 14 7 7 10 12 9 9
23 24 21 21 21 21 20 18 18 18 15 15 16 15 13 12 12 11 9 8 10 12 13 14 13 13 14 16 15 16 17 22 29 30 29 29 29 23 15 17 17 18 19 18 16 14 15 16 15 13 12 12 10 11 16 13 14 13 15 15 13 17 21 23 22 20 18 17 19 20 18 16 17 19 21 16 18 18 17 18 16 14 14 14 3
23 23 21 21 20 20 19 18 18 17 16 15 14 14 14 13 13 10 8 10 11 11 12 12 11 11 13 16 16 15 16 24 27 29 29 30 29 25 15 15 14 15 16 14 14 16 16 15 17 15 12 13 14 17 15 13 14 14 14 14 13 12 11 14 13 12 13 12 15 17 20 19 14 19 17 16 21 21 22 23 23 17 8 7 6
23 23 22 19 19 20 19 19 18 17 17 15 14 14 14 13 13 10 10 10 10 10 11 11 11 11 12 14 15 16 16 26 28 29 30 28 30 19 14 15 15 15 15 14 16 15 14 16 16 15 17 17 22 25 21 15 16 18 17 15 13 12 11 13 18 17 15 12 11 13 11 15 12 12 16 16 11 5 8 9 9 10 11 9 6
22 22 22 19 19 19 18 18 18 17 16 16 15 12 12 12 10 8 9 10 10 10 11 11 9 10 11 12 16 15 13 22 28 29 29 29 24 15 14 13 13 14 15 15 15 13 14 14 14 16 16 16 22 27 26 21 17 20 18 18 15 12 12 10 12 15 17 19 16 16 13 15 15 20 22 21 16 13 9 8 9 10 10 10 7
22 22 21 20 18 18 18 17 17 16 15 16 15 15 11 9 9 7 9 10 10 10 10 9 9 8 10 11 15 16 14 20 26 27 28 28 23 16 12 13 13 12 11 12 12 13 15 19 15 13 16 18 23 26 27 23 18 19 18 18 16 14 11 9 7 8 9 7 6 10 13 17 17 21 23 23 23 17 18 16 18 11 10 9 10
22 21 22 22 21 19 17 17 16 17 16 16 13 13 13 11 9 8 8 8 10 9 9 9 8 7 8 11 14 16 15 19 27 27 29 29 24 15 13 11 13 12 11 11 11 12 13 16 21 14 14 18 28 28 29 24 19 20 20 18 17 17 15 13 13 12 9 6 5 6 5 11 13 13 17 27 26 22 18 19 13 11 11 8 8
23 22 22 21 20 19 16 17 15 15 15 15 14 13 11 10 9 8 7 7 8 8 8 8 9 8 8 8 10 12 13 15 22 29 29 30 29 17 14 14 14 14 13 12 12 10 12 12 17 21 19 17 23 30 29 29 21 19 18 18 18 19 13 15 17 17 16 14 11 9 8 8 9 8 9 12 16 17 14 9 13 18 18 15 9
23 22 21 21 20 20 16 16 16 15 14 13 11 11 11 11 9 8 8 7 8 9 9 8 9 9 7 8 10 10 11 14 18 28 29 30 29 23 13 15 15 14 13 13 12 13 12 13 11 19 21 20 23 26 29 30 25 20 20 18 19 20 20 18 20 21 16 14 10 8 7 7 7 7 10 11 9 12 12 9 13 14 15 14 11
22 22 21 21 21 20 17 16 15 13 13 12 11 11 10 10 10 9 8 8 9 9 8 8 8 8 7 9 9 12 13 18 14 22 26 27 28 29 17 15 14 13 14 13 13 12 13 13 12 19 24 22 19 21 25 28 28 17 20 23 25 23 22 16 13 11 9 7 9 9 9 10 8 9 9 9 11 16 14 11 11 13 7 11 20
22 21 21 21 21 20 19 19 16 11 12 12 12 12 10 9 8 8 9 9 10 9 8 8 8 8 8 8 8 10 11 12 20 20 26 28 30 29 26 18 21 15 14 15 15 14 11 12 13 23 27 27 28 28 25 27 25 20 26 24 22 23 20 9 13 10 9 10 10 9 10 11 10 10 10 10 12 15 14 6 7 10 1 1 1
21 21 20 20 20 18 18 17 14 12 12 11 11 11 11 10 9 9 8 8 8 8 7 7 8 8 9 9 8 9 10 10 15 21 22 27 26 28 26 22 24 17 15 13 12 12 11 13 15 24 26 26 27 26 26 27 21 25 25 28 27 22 14 11 10 11 15 14 15 11 10 10 9 9 9 10 13 16 13 9 5 6 3 2 3
21 20 20 19 18 17 16 15 14 12 11 11 11 10 11 9 9 8 7 7 7 7 7 7 8 8 8 9 8 8 8 9 9 16 23 25 26 26 25 22 23 22 15 11 12 13 16 19 21 26 27 27 27 26 22 23 25 24 25 27 24 14 14 13 13 14 14 16 15 12 10 14 15 18 15 12 10 7 7 5 5 4 4 4 5
23 22 19 17 17 16 17 17 16 14 12 10 10 9 9 7 7 7 6 6 6 7 7 7 8 8 8 7 8 8 8 7 8 10 13 18 20 25 26 22 22 21 18 13 17 18 18 20 24 27 27 27 22 16 16 20 26 25 22 20 14 14 15 14 14 14 16 15 15 16 17 14 13 11 10 10 9 9 10 9 9 7 6 6 5
22 20 18 16 16 14 15 12 12 12 9 8 8 8 7 7 7 7 6 6 6 7 7 7 7 8 8 7 7 7 8 8 8 8 9 11 12 15 19 18 20 19 13 8 13 14 18 18 15 18 17 23 22 21 21 19 18 18 14 14 13 13 13 14 16 16 15 15 16 16 14 13 10 9 9 11 10 9 8 8 8 8 7 6 6
19 18 19 15 13 12 12 15 15 11 10 8 7 7 6 6 7 7 6 6 6 7 7 7 8 8 8 6 6 7 8 8 9 10 10 11 10 11 13 13 13 12 12 10 9 10 10 11 14 12 12 12 14 12 13 13 14 14 14 13 12 10 12 15 16 14 15 15 14 12 10 9 8 7 8 9 9 8 8 8 9 9 8 8 6
20 16 14 12 12 11 10 11 10 10 10 7 6 6 6 5 7 6 6 6 6 7 7 7 6 6 7 7 8 8 8 9 9 8 9 11 11 11 11 11 12 11 12 13 9 7 8 9 9 10 10 12 12 12 11 11 11 12 14 13 12 12 11 11 13 12 9 8 10 12 13 9 7 7 8 9 9 10 9 7 6 9 8 7 8
20 18 15 12 11 11 10 9 8 9 9 8 6 6 8 11 8 7 6 9 13 13 10 8 7 6 8 7 8 9 9 7 10 13 15 17 18 18 16 15 14 12 15 19 14 10 11 11 11 12 12 11 12 13 13 13 12 12 13 14 13 12 13 13 13 13 12 12 12 12 13 11 10 10 10 10 9 8 12 13 9 9 11 11 9
17 17 17 17 18 16 13 12 9 8 8 8 7 6 5 6 13 15 13 10 11 14 15 14 12 13 10 7 7 9 9 16 21 20 19 19 20 20 20 20 21 21 24 18 14 13 14 14 14 14 15 15 15 15 15 14 14 14 14 14 14 15 15 14 14 12 12 12 12 12 14 15 13 11 11 11 14 11 11 11 7 9 8 9 9
17 17 16 17 18 16 14 14 11 8 7 7 6 6 6 6 5 9 14 14 13 14 15 15 14 15 14 11 10 7 13 18 18 20 22 23 22 21 22 23 24 25 26 24 15 13 13 14 14 14 14 15 15 14 13 13 13 14 13 14 14 14 15 14 13 13 13 13 13 14 16 16 17 15 13 14 14 14 15 12 9 10 8 7 8
19 17 18 19 17 17 15 14 14 11 9 7 6 6 7 6 7 5 5 11 15 14 14 16 15 15 16 15 17 14 15 16 19 19 20 20 21 21 21 21 22 24 24 17 14 15 14 14 13 13 13 14 13 12 12 13 12 13 13 14 15 14 14 13 13 14 14 15 14 14 14 16 14 14 13 13 14 13 14 12 9 9 9 8 7
19 15 18 19 18 16 16 15 14 14 12 7 7 5 5 5 4 4 3 3 4 7 11 15 14 14 15 16 15 16 19 21 21 21 20 19 19 18 18 16 21 24 23 16 15 12 11 11 11 11 11 10 9 10 11 11 11 11 12 12 12 11 12 11 13 14 12 13 13 13 15 15 15 13 12 13 12 11 13 14 13 10 11 11 11
19 21 32 26 17 16 15 14 14 14 14 12 7 5 4 2 2 2 3 3 3 4 4 5 10 13 11 11 14 16 19 20 20 20 20 20 20 19 18 12 13 14 16 14 13 12 11 11 11 10 9 10 9 9 10 10 10 10 11 12 11 11 12 13 14 14 13 13 13 14 16 16 15 14 15 15 13 13 12 12 12 10 11 10 11
20 16 18 22 19 17 15 15 14 14 14 12 13 13 9 4 1 2 2 1 2 3 2 1 1 5 11 10 13 15 18 18 18 18 18 19 18 19 11 10 11 11 11 11 10 10 10 10 9 9 9 9 9 10 10 11 12 12 12 12 13 13 13 14 14 14 15 14 14 14 14 13 14 14 13 13 16 15 12 16 14 14 14 13 13
18 16 17 18 18 16 15 15 15 17 17 15 15 15 15 15 14 13 11 10 9 7 4 3 4 6 5 2 9 13 16 16 16 16 16 16 18 14 10 10 9 10 10 11 10 9 9 8 9 8 9 11 11 11 11 11 11 11 11 12 12 12 13 13 13 12 12 12 12 12 14 14 14 14 15 15 13 10 12 14 13 13 12 12 12
17 16 18 20 17 18 17 16 18 22 18 17 15 15 16 15 15 14 14 13 14 13 12 12 11 6 3 5 4 4 7 10 12 11 11 12 10 9 8 7 8 9 9 8 8 8 8 6 6 8 8 8 9 9 10 10 10 10 10 10 10 10 12 11 12 12 11 10 11 10 11 12 13 14 13 13 14 13 14 13 11 12 11 12 11
17 24 30 33 23 18 15 17 18 17 17 17 16 16 17 16 16 15 14 13 14 13 12 12 12 12 12 6 4 5 8 5 4 3 3 2 2 2 2 2 4 6 6 8 8 7 6 6 6 6 6 6 7 6 7 7 8 9 9 9 9 8 11 10 11 11 11 11 11 10 11 11 10 9 11 11 11 11 11 13 12 13 13 11 12
16 16 20 30 19 19 16 16 16 17 17 17 17 16 16 17 15 15 14 15 14 14 13 14 15 16 16 16 12 12 14 12 11 11 10 10 9 7 3 2 2 3 3 3 4 4 4 4 5 6 6 6 6 6 6 6 7 7 8 9 10 10 11 10 10 11 11 10 9 10 10 9 9 8 6 6 7 8 10 11 10 12 12 11 12
13 15 16 19 22 17 16 17 16 16 15 16 16 16 15 15 15 15 14 14 14 14 14 13 12 13 20 24 31 25 15 12 11 12 11 10 10 11 11 11 10 8 7 6 6 5 6 6 6 5 5 5 5 5 5 6 6 7 8 8 8 8 9 10 11 10 11 10 11 11 10 10 10 10 8 6 7 7 6 6 6 5 7 7 8
14 14 15 15 17 15 15 16 14 16 15 16 16 15 15 15 14 15 15 15 15 14 13 14 14 11 24 40 35 36 20 12 13 12 12 12 11 11 10 10 9 10 10 10 9 8 8 8 7 7 7 6 5 5 6 6 7 7 8 8 8 8 8 9 9 10 10 11 11 11 10 11 12 10 11 9 7 7 8 8 7 8 7 8 8
14 13 13 14 15 14 13 12 13 14 15 15 14 15 15 15 14 14 14 15 14 15 15 14 13 14 18 30 31 32 16 14 14 14 13 12 11 12 11 10 8 10 12 12 11 10 9 9 9 8 8 8 8 7 7 5 2 6 7 7 8 9 9 9 9 10 8 7 7 11 11 10 9 7 8 9 7 6 7 10 10 10 11 10 9
13 13 13 13 13 13 14 13 14 14 13 14 15 15 15 14 13 14 13 14 14 13 13 13 12 14 12 16 20 18 14 14 14 13 12 12 13 12 10 9 9 14 14 14 14 12 10 10 9 9 12 9 9 9 8 7 8 6 3 4 5 5 6 6 7 8 8 9 9 8 8 9 8 8 9 8 9 10 10 10 9 9 9 8 8
12 13 13 13 13 13 13 13 14 13 14 13 13 14 15 14 14 14 14 13 14 14 13 12 13 12 13 14 14 14 12 11 12 13 13 11 11 11 10 9 12 15 15 14 13 14 14 13 13 11 11 10 10 10 9 9 9 9 8 7 7 6 5 5 4 3 3 6 8 8 8 8 9 8 8 8 8 9 9 9 9 8 9 8 9
12 11 13 12 13 13 13 12 14 12 13 13 13 13 13 13 13 14 14 14 14 13 13 13 12 13 13 12 12 13 13 12 12 12 12 12 11 10 10 10 11 14 13 12 10 14 13 12 13 14 15 14 13 11 9 10 11 10 9 9 8 6 6 7 7 7 7 5 5 6 6 6 7 5 6 6 6 5 6 7 6 7 8 8 7
12 11 11 12 12 12 13 12 12 13 12 13 13 13 13 13 12 12 13 15 14 13 13 13 12 13 12 13 12 12 12 12 11 12 12 12 11 11 11 11 11 14 13 11 12 12 12 11 13 14 11 12 14 15 14 12 9 9 10 9 9 9 8 8 9 8 8 7 6 7 7 7 7 7 8 8 7 7 7 6 6 7 6 6 6
10 10 10 11 11 11 11 12 12 14 12 12 12 12 12 12 12 13 12 12 13 13 12 12 12 11 12 12 11 12 12 11 11 11 11 11 11 12 12 13 13 12 13 13 13 12 11 10 9 11 13 13 13 12 11 11 10 11 10 10 11 11 13 14 10 10 8 7 7 7 7 7 7 7 7 7 7 7 7 7 6 6 5 6 5
10 10 10 11 10 11 11 12 12 11 11 11 11 12 12 11 11 11 11 11 11 11 11 11 11 11 11 11 10 10 10 11 11 11 11 10 11 11 11 11 11 10 10 10 11 12 11 11 13 12 11 11 10 12 11 10 11 12 12 11 16 25 23 21 13 11 12 9 9 9 9 8 8 9 8 8 7 6 7 6 6 6 6 6 5
8 9 9 10 10 10 9 9 9 9 10 10 10 10 10 11 11 11 11 11 10 11 11 11 11 11 10 11 11 11 11 11 11 10 10 10 10 10 10 11 11 10 10 10 9 10 11 11 13 12 11 11 11 11 10 11 11 11 11 14 22 23 21 22 22 19 12 9 9 8 9 9 9 8 8 8 7 8 7 7 6 5 6 6 6
8 8 8 8 8 8 9 9 9 9 9 9 9 9 10 10 9 10 10 10 10 10 10 9 10 10 10 9 10 10 10 10 9 9 9 10 10 10 10 10 11 10 10 10 9 9 10 9 8 8 9 9 10 10 10 10 11 13 17 21 22 22 22 19 14 18 17 9 7 7 8 9 9 9 8 7 7 7 7 7 6 6 5 5 5
Wind_Direction
278 275 271 266 257 251 254 247 246 243 244 237 251 262 274 277 291 294 302 298 303 311 260 207 188 184 184 185 183 181 177 179 181 177 175 175 168 176 173 176 179 181 175 178 183 180 181 182 183 182 174 177 167 172 173 165 167 175 183 173 172 179 183 175 157 125 103 137 139 143 139 138 136 144 132 133 129 104 94 109 131 126 127 129 127
281 278 272 267 260 252 249 245 240 243 245 245 244 252 265 276 286 298 299 298 306 307 293 221 191 186 184 182 183 181 177 178 180 181 177 176 176 178 178 179 180 181 179 182 172 182 180 181 184 181 177 181 178 178 172 170 173 175 179 177 179 176 179 166 158 148 150 144 132 128 139 155 135 154 148 142 134 124 113 105 76 105 126 128 134
309 294 281 276 269 255 247 240 235 237 239 245 245 239 257 263 283 289 296 303 304 303 306 256 198 186 183 183 181 182 178 178 174 181 183 176 178 179 178 182 181 180 180 185 178 167 175 184 185 178 176 182 182 173 168 169 169 175 175 177 175 174 173 162 148 148 145 153 146 146 155 162 158 158 151 136 127 129 121 119 116 95 79 130 133
308 310 307 294 280 269 255 240 231 236 235 241 241 242 256 263 270 281 291 300 301 303 306 281 216 188 183 181 180 180 178 177 178 180 182 180 177 181 179 184 185 182 182 181 181 176 176 179 186 180 178 181 181 170 171 164 172 177 169 176 173 164 161 151 162 138 152 136 162 159 159 151 146 144 132 128 133 136 131 117 99 103 105 99 120
317 316 310 305 298 283 270 251 236 232 234 241 242 240 256 259 267 278 290 296 300 305 300 297 227 189 183 180 179 181 178 179 179 180 183 184 180 180 178 182 186 186 186 183 181 176 176 183 174 181 180 182 182 172 169 161 172 178 184 185 182 151 141 156 160 151 148 139 142 153 150 144 137 144 147 144 136 113 108 127 139 134 114 101 89
310 306 306 306 308 306 296 280 260 244 241 245 247 250 256 261 264 279 279 289 298 295 297 300 252 197 182 180 181 181 180 179 179 180 182 185 183 178 181 184 186 187 187 187 180 178 179 181 170 177 186 187 183 172 166 174 172 175 181 183 171 145 155 156 147 158 150 144 145 143 161 146 143 156 167 152 144 139 131 116 116 127 136 135 135
307 306 304 300 296 296 295 292 283 266 260 265 264 254 253 266 270 279 279 280 289 292 294 295 279 215 186 181 181 181 180 180 180 180 181 180 181 183 181 186 187 188 180 177 168 177 177 180 174 177 183 192 183 179 169 173 179 183 184 182 175 169 160 146 153 155 152 144 143 149 148 152 154 156 168 161 146 149 144 146 150 165 165 155 146
306 305 306 304 301 297 294 293 293 286 288 287 284 277 263 253 263 273 274 279 282 284 285 289 284 231 194 183 182 179 179 180 177 179 180 182 182 184 184 182 186 189 192 190 183 177 179 180 179 181 184 187 188 176 171 175 175 180 176 172 172 169 167 155 154 152 148 152 148 154 151 149 150 131 134 151 147 157 178 163 163 169 172 168 166
302 303 302 300 298 298 294 287 287 288 286 284 282 283 280 266 264 269 269 275 275 278 280 283 285 237 199 182 178 177 179 182 182 180 179 183 181 181 182 183 185 183 189 192 188 173 173 178 178 185 192 193 190 183 179 173 171 175 175 170 169 170 163 148 154 150 153 148 142 142 147 153 159 150 163 175 183 182 178 169 155 156 152 152 163
299 300 299 298 298 297 294 291 290 289 288 288 288 287 287 277 270 267 268 270 273 276 280 282 284 246 199 181 176 178 182 183 184 181 178 177 178 182 181 182 184 183 183 186 189 190 181 176 187 191 195 197 193 185 180 177 177 175 171 170 170 169 166 164 157 157 152 156 157 153 157 168 167 172 175 191 178 141 147 164 149 154 148 152 151
296 297 297 297 296 296 295 291 287 283 281 280 281 280 276 272 264 263 267 270 271 277 277 281 282 250 201 180 177 181 182 186 183 182 180 175 176 178 178 179 184 183 184 184 186 185 181 177 178 190 195 201 198 188 180 180 179 178 175 176 175 169 166 169 171 166 161 161 163 158 169 175 180 180 183 163 171 171 169 167 157 150 164 163 178
296 293 294 295 294 293 292 290 287 286 286 281 277 272 264 258 258 260 265 267 270 275 275 274 279 256 207 181 180 183 186 180 179 183 181 176 178 177 176 177 177 185 188 187 185 183 184 185 185 182 191 191 192 193 185 181 181 178 175 178 180 179 175 171 169 171 171 159 157 178 176 181 174 171 169 167 172 159 166 166 162 171 170 181 170
295 292 291 293 291 290 289 286 282 278 280 284 279 265 257 260 261 261 260 260 268 272 272 275 275 254 210 187 181 184 185 177 178 182 182 179 180 176 177 178 178 181 184 187 184 181 182 185 188 188 194 191 190 184 181 187 185 179 176 180 184 181 181 183 179 174 174 173 174 180 184 179 176 187 184 184 174 170 171 170 171 180 183 182 181
293 291 288 289 289 288 286 284 282 279 273 270 274 276 272 265 263 258 258 261 262 267 273 272 267 254 211 187 184 181 183 177 179 182 182 181 180 176 177 180 183 181 181 183 181 181 182 180 181 184 179 180 186 178 185 183 181 179 179 181 183 188 185 184 182 183 180 177 177 184 195 179 182 187 188 169 164 174 176 187 180 182 187 186 111
292 288 285 284 285 284 283 281 281 281 277 269 265 263 264 265 260 254 252 256 258 260 270 271 260 249 224 191 180 184 183 177 180 182 185 182 180 177 176 178 180 183 188 182 178 181 181 184 182 176 169 171 183 186 183 179 178 178 177 183 188 188 188 185 182 176 182 191 190 193 189 191 195 184 170 173 181 181 184 184 180 177 142 83 73
293 288 283 283 283 282 281 280 280 281 280 274 264 258 255 252 251 250 253 256 255 260 266 260 251 242 230 199 179 183 186 181 181 183 183 184 178 179 176 178 181 184 185 177 180 184 188 182 179 183 182 183 183 180 181 173 176 177 179 182 188 194 199 196 187 184 183 184 191 196 188 194 179 166 175 176 170 112 78 72 90 112 140 153 149
300 293 282 277 278 279 279 280 280 278 277 278 277 265 252 248 245 247 253 254 256 258 261 253 242 233 227 210 183 181 180 182 181 182 181 182 179 182 176 180 183 185 185 180 182 179 182 190 189 182 179 185 184 180 177 171 177 178 180 182 186 185 195 195 197 194 193 194 192 191 181 183 165 166 172 173 168 150 126 127 160 160 155 162 158
304 304 295 285 282 284 281 277 277 275 274 268 267 274 267 253 251 244 247 254 257 260 260 251 237 227 215 212 192 178 180 180 180 178 177 180 178 181 179 178 180 184 184 183 182 180 186 183 192 189 181 183 179 183 177 171 175 179 179 180 181 187 188 179 173 188 201 193 158 171 176 179 169 167 165 166 169 162 163 174 177 164 173 168 157
304 304 304 300 291 281 280 273 271 271 272 272 267 261 260 262 260 252 247 253 258 263 254 243 234 219 219 206 200 185 176 178 177 176 179 178 177 177 176 179 178 180 178 184 189 187 182 184 189 192 194 184 178 182 178 175 176 177 179 178 183 187 185 170 173 177 175 158 150 142 151 164 165 169 176 175 173 178 186 183 162 169 169 167 135
302 300 299 298 298 290 278 271 265 268 265 263 271 281 284 277 265 254 251 252 261 258 246 237 223 219 204 203 195 188 177 177 181 177 178 179 178 176 178 178 184 181 180 180 182 189 183 184 187 190 189 193 190 182 179 177 177 179 177 181 183 189 178 176 183 180 182 183 178 167 161 158 157 158 168 174 182 189 193 187 182 182 183 179 159
301 300 298 297 297 295 284 272 265 265 263 264 266 265 262 263 262 259 259 257 256 256 246 228 218 214 204 200 189 187 179 174 183 181 180 178 177 175 180 185 183 179 180 178 184 184 185 185 181 187 185 187 195 192 182 180 178 176 181 186 187 186 174 184 186 178 176 178 167 157 154 153 158 162 167 178 179 189 199 200 194 201 188 177 172
300 299 298 297 297 295 289 276 260 259 260 257 256 256 254 251 253 257 259 259 253 249 239 225 213 208 201 196 201 188 182 178 174 183 181 180 179 179 178 184 177 175 178 182 183 187 188 185 179 182 181 180 191 200 195 183 180 179 191 189 189 180 182 184 167 166 160 152 155 158 160 161 161 170 173 179 184 189 197 198 198 205 225 203 186
302 301 298 295 293 292 292 287 267 253 253 256 257 260 261 259 257 257 260 256 251 244 232 221 208 203 197 196 199 195 181 182 178 181 186 184 184 186 184 176 174 174 181 186 188 189 185 182 182 179 180 181 185 192 197 194 185 190 187 188 189 187 181 166 170 160 147 154 158 166 168 166 165 171 174 182 188 191 193 154 187 197 212 190 46
303 299 297 295 294 292 291 289 278 252 249 248 251 254 252 251 250 251 249 249 249 239 230 215 207 200 198 195 195 196 190 178 185 184 184 185 187 188 187 177 175 182 182 187 185 182 179 185 182 179 184 183 185 188 196 196 197 196 187 186 186 180 175 177 171 169 169 174 180 172 171 174 170 171 176 179 182 189 184 171 156 174 153 142 89
303 298 293 291 290 290 290 289 288 267 242 240 247 247 248 243 248 243 237 238 237 238 228 214 208 204 197 196 191 193 190 185 181 188 187 187 186 187 188 181 183 179 179 182 179 184 186 182 177 180 184 186 184 185 194 203 206 197 194 192 182 173 178 174 174 174 181 185 186 185 180 186 184 189 183 178 165 139 122 116 114 99 80 83 80
303 298 294 288 286 287 288 286 283 274 243 240 236 238 242 242 240 241 229 228 229 230 226 213 209 203 201 194 192 186 182 178 182 184 188 188 187 185 185 186 183 184 184 177 177 178 178 179 181 185 189 188 185 182 185 194 202 200 197 190 183 183 179 176 178 181 189 185 184 191 198 190 185 169 154 149 148 161 157 154 150 150 151 150 142
295 291 291 290 287 284 282 282 283 286 266 239 231 233 229 230 234 237 227 226 224 227 224 211 205 202 199 194 186 182 177 180 178 178 183 184 187 185 184 186 182 181 184 174 173 175 176 177 179 181 187 189 186 184 188 193 196 198 194 188 193 191 184 178 180 184 190 189 192 195 192 185 164 145 153 153 158 166 161 147 148 152 150 155 152
302 294 291 287 281 279 276 275 277 275 271 259 250 242 222 218 230 224 221 216 219 225 221 215 205 198 195 183 179 180 185 182 181 178 180 180 180 178 182 181 180 182 182 178 171 170 168 170 173 174 180 186 192 193 191 190 192 189 190 190 190 189 192 189 187 193 194 192 191 181 172 163 161 155 147 156 161 152 148 151 153 151 157 143 151
304 291 285 297 290 280 274 275 275 277 277 263 241 238 231 222 221 231 221 214 211 216 216 220 206 195 187 179 175 186 186 188 192 176 168 170 170 173 179 180 177 180 172 146 129 123 138 156 162 172 181 186 191 194 193 190 192 190 191 188 185 184 183 186 193 197 188 177 184 177 174 159 158 156 154 149 157 157 152 146 143 142 152 169 177
311 314 312 311 305 302 295 278 275 279 278 273 269 251 229 225 222 221 229 213 218 218 217 217 203 187 188 187 177 183 187 177 140 153 164 171 175 175 174 170 169 159 149 144 145 148 162 169 177 180 184 188 190 193 192 189 186 183 188 188 185 184 188 190 193 189 184 187 184 178 175 169 161 164 165 161 148 148 166 166 153 155 159 173 170
322 320 328 329 322 317 313 299 281 274 276 280 267 263 265 236 228 227 226 222 215 222 222 222 201 192 187 177 173 173 164 155 161 169 171 176 178 177 174 173 169 163 155 152 159 169 174 182 185 187 188 187 191 193 190 188 187 185 185 184 187 188 189 190 190 185 183 183 181 183 180 177 175 169 167 163 162 156 160 173 154 163 173 167 169
324 326 329 326 324 330 327 321 302 275 276 267 265 263 257 260 246 222 226 228 228 222 222 219 207 194 191 177 159 148 160 170 175 175 178 180 181 182 180 176 172 167 168 166 174 187 187 189 190 193 191 192 194 190 187 190 190 187 182 183 191 190 187 191 185 181 183 182 182 182 183 188 188 182 177 172 167 167 172 166 161 166 169 173 180
324 325 333 331 332 334 334 334 331 315 275 264 258 246 252 247 248 255 213 227 230 228 222 218 207 196 191 179 168 161 162 169 177 183 184 185 182 182 180 177 174 173 168 175 190 191 193 195 195 193 190 196 191 187 187 188 186 186 186 187 189 189 190 189 175 185 188 187 182 184 184 185 182 179 178 174 170 170 170 166 160 162 164 167 173
326 333 340 340 341 339 338 336 332 334 327 279 255 258 240 229 238 233 222 194 217 231 232 220 206 196 191 178 174 165 165 170 178 182 185 186 186 183 177 178 178 175 177 190 193 195 191 196 195 191 193 192 187 184 187 187 187 186 187 188 189 185 182 176 181 190 188 185 186 184 181 181 178 176 173 181 181 170 170 173 166 156 171 181 172
334 339 344 349 349 341 336 333 336 335 339 347 325 254 230 234 219 190 191 191 185 185 179 217 208 190 188 183 174 166 169 175 179 183 184 186 184 180 172 170 179 187 191 196 192 195 193 192 193 189 185 186 187 187 185 184 181 185 188 186 184 181 179 183 189 189 187 187 187 185 183 182 179 181 178 177 174 175 175 171 175 169 168 164 167
337 340 342 348 352 346 341 340 340 344 348 345 357 4 358 5 35 63 70 92 114 122 95 88 106 181 172 170 169 165 170 175 181 182 184 184 183 171 173 186 187 190 192 194 196 196 191 190 188 187 183 185 182 186 189 187 190 189 189 184 185 184 184 188 187 188 190 187 186 181 177 182 181 181 181 183 183 181 176 180 179 182 185 184 183
337 343 350 351 353 348 347 346 347 355 1 4 6 9 11 15 19 23 25 23 25 29 53 84 88 85 71 107 159 164 167 174 177 179 181 183 178 176 190 185 190 187 191 193 194 194 192 192 189 186 184 186 188 189 187 189 189 189 188 188 188 185 188 189 187 186 183 185 183 176 179 183 181 180 182 185 186 183 180 180 182 178 180 178 167
330 346 353 356 356 358 2 356 355 2 8 6 10 14 18 19 20 23 24 28 26 26 23 13 16 20 85 116 95 126 164 166 164 170 177 177 177 188 190 189 190 189 189 193 191 188 189 176 179 185 184 186 189 186 186 188 184 184 182 181 182 188 180 179 179 180 182 183 183 178 179 181 183 183 184 185 186 184 182 180 174 175 175 174 178
340 346 358 3 8 9 3 6 1 6 11 10 9 17 21 19 19 21 20 22 25 20 15 17 20 13 356 346 74 92 100 81 92 105 104 101 131 163 172 192 197 193 186 185 182 182 177 172 171 164 167 174 179 179 179 180 177 176 172 172 173 167 171 177 180 180 181 184 185 178 179 184 180 162 174 180 183 180 180 179 179 177 176 175 185
337 345 350 3 7 7 10 9 8 9 9 15 11 13 21 22 20 19 22 26 25 23 20 23 26 21 11 13 22 45 55 42 30 28 29 25 20 12 23 103 142 161 153 156 160 167 161 147 149 150 158 161 164 168 170 168 169 170 168 173 169 169 174 174 173 174 178 178 170 164 171 171 163 119 117 150 161 159 161 166 170 182 184 181 183
333 344 349 358 4 7 11 13 15 11 6 16 16 19 20 21 22 24 24 25 25 25 27 22 17 22 31 38 49 58 56 44 30 33 29 27 23 24 21 17 15 33 48 64 80 89 96 92 80 93 96 112 125 129 139 141 144 153 163 163 160 162 164 167 168 169 168 162 161 158 160 157 156 144 144 146 145 142 145 124 140 142 164 165 175
340 347 352 351 356 5 9 11 6 10 12 17 21 17 17 19 23 28 28 27 26 26 29 27 18 10 32 39 45 52 52 36 36 33 27 23 24 21 19 20 19 22 18 13 18 41 53 60 56 61 65 69 86 115 121 134 142 148 152 153 156 154 157 162 166 166 165 166 163 162 161 152 158 162 165 163 154 152 147 155 156 157 157 165 169
341 349 348 356 1 4 5 0 6 14 19 19 18 18 20 23 22 21 27 28 27 28 28 27 21 17 31 34 41 47 44 36 35 34 29 27 26 26 22 16 11 23 32 30 18 25 39 47 47 40 39 39 37 40 46 49 94 143 152 156 159 160 161 161 165 169 162 148 142 159 158 158 158 152 161 166 155 142 154 165 167 167 175 171 164
344 350 352 359 358 1 5 7 10 13 15 17 22 24 20 20 20 22 19 24 23 24 27 21 15 24 16 19 29 36 33 33 31 30 28 29 29 26 16 5 18 40 44 41 40 27 22 33 40 46 51 41 36 41 45 39 37 47 76 106 128 136 153 159 165 166 161 160 161 152 151 159 153 154 165 162 159 165 167 166 164 165 162 166 165
347 354 355 356 360 4 1 5 9 7 11 16 22 23 23 23 20 20 23 24 23 25 25 23 21 22 23 21 25 32 26 27 29 30 30 24 25 17 7 9 29 42 44 41 37 38 44 42 44 43 43 39 40 38 40 38 38 44 43 52 61 56 50 55 51 57 100 139 149 152 153 156 164 165 163 161 163 161 165 166 165 158 162 168 171
350 353 359 359 359 2 2 4 4 5 13 16 17 21 20 21 21 19 21 22 25 24 23 22 23 25 25 27 25 30 25 26 27 27 26 22 20 11 6 10 30 43 44 36 23 39 40 40 45 48 51 49 44 39 32 35 43 38 39 42 43 47 43 51 52 60 65 81 110 133 134 134 139 139 128 137 138 138 139 138 141 154 166 162 165
353 356 359 4 2 1 2 358 5 9 10 15 18 19 22 21 18 20 22 23 22 23 24 20 21 24 23 24 23 23 22 25 24 23 18 15 14 15 11 12 24 44 40 30 31 33 33 33 42 43 39 47 50 47 46 43 34 40 39 37 32 37 38 48 53 60 63 68 81 95 102 109 107 106 108 107 111 112 117 115 124 135 135 145 145
359 356 359 2 3 4 2 0 6 7 8 10 16 18 20 16 18 19 20 20 23 22 22 20 20 21 26 23 22 25 28 27 28 25 22 18 15 17 14 19 27 35 39 40 35 32 29 23 20 32 38 39 42 41 37 37 37 41 38 41 40 42 45 50 55 52 59 63 74 83 94 98 95 100 104 109 111 115 117 121 122 114 117 120 122
5 3 360 1 4 5 5 4 6 9 7 4 9 16 16 16 17 15 13 15 18 19 19 20 20 19 25 23 21 21 22 22 23 20 21 17 13 13 17 20 21 19 28 28 24 27 25 26 34 32 34 32 26 36 38 35 41 44 44 44 48 50 49 48 51 56 58 63 66 72 75 76 86 90 87 93 96 93 99 104 111 120 112 117 120
1 3 6 3 2 1 360 3 7 8 6 9 9 11 13 16 17 15 11 11 16 17 15 15 20 15 15 16 18 17 21 22 21 20 17 15 14 10 14 15 19 19 23 23 21 22 26 28 33 32 32 31 29 27 30 36 39 49 51 54 54 52 51 51 52 56 61 63 65 73 78 81 82 82 78 84 87 97 95 99 105 111 116 118 125
4 6 7 6 2 358 359 0 6 6 8 9 10 11 11 12 13 12 12 12 12 11 13 10 12 14 16 12 16 17 19 18 18 19 19 16 11 12 14 16 18 17 18 19 20 19 21 19 16 16 17 20 25 24 26 33 43 51 59 62 61 59 57 55 54 52 51 44 41 49 66 70 78 77 77 73 81 81 88 88 90 95 104 108 116